This is the latest recevied weather packets stored in our database for station/object N5ZP. If no packets are shown the sender has not sent any weather packets the latest 10 day(s).
| Time | Temp. | Humidity | Pressure | Rain* | Wind** | Luminosity | Snow |
|---|---|---|---|---|---|---|---|
| 1788526713 | 25.56° C | 90% | 1011.1 hPa | 0 mm | - | 29 W/m² | - |
| 1788526409 | 25.56° C | 90% | 1011.3 hPa | 0 mm | - | 31 W/m² | - |
| 1788526108 | 25.56° C | 91% | 1011.2 hPa | 0 mm | - | 28 W/m² | - |
| 1788525804 | 25° C | 91% | 1011.2 hPa | 0 mm | - | 24 W/m² | - |
| 1788525504 | 25° C | 91% | 1011.1 hPa | 0 mm | - | 21 W/m² | - |
| 1788525199 | 25° C | 91% | 1011.3 hPa | 0 mm | - | 15 W/m² | - |
| 1788524895 | 25° C | 91% | 1011.2 hPa | 0 mm | - | 14 W/m² | - |
| 1788524594 | 25° C | 91% | 1010.9 hPa | 0 mm | - | 13 W/m² | - |
| 1788524290 | 25° C | 91% | 1010.8 hPa | 0 mm | - | 9 W/m² | - |
| 1788523986 | 25° C | 91% | 1010.6 hPa | 0 mm | - | 6 W/m² | - |
| 1788523682 | 25° C | 91% | 1010.7 hPa | 0 mm | - | 3 W/m² | - |
| 1788523377 | 25° C | 90% | 1010.8 hPa | 0 mm | - | 1 W/m² | - |
| 1788523072 | 25° C | 90% | 1010.5 hPa | 0 mm | - | 1 W/m² | - |
| 1788522768 | 25° C | 89% | 1010.5 hPa | 0 mm | - | 0 W/m² | - |
| 1788522457 | 25.56° C | 88% | 1010.7 hPa | 0 mm | - | 0 W/m² | - |
| 1788522157 | 25.56° C | 88% | 1010.7 hPa | 0 mm | - | 0 W/m² | - |
| 1788521851 | 25.56° C | 88% | 1010.5 hPa | 0 mm | - | 0 W/m² | - |
| 1788521550 | 25.56° C | 87% | 1010.7 hPa | 0 mm | - | 0 W/m² | - |
| 1788521240 | 25.56° C | 87% | 1010.7 hPa | 0 mm | - | 0 W/m² | - |
| 1788520936 | 25.56° C | 87% | 1010.5 hPa | 0 mm | - | 0 W/m² | - |
| 1788520631 | 25.56° C | 87% | 1010.6 hPa | 0 mm | - | 0 W/m² | - |
| 1788520327 | 25.56° C | 87% | 1010.4 hPa | 0 mm | - | 0 W/m² | - |
| 1788520023 | 25.56° C | 87% | 1010.4 hPa | 0 mm | - | 0 W/m² | - |
| 1788519721 | 25.56° C | 86% | 1010.3 hPa | 0 mm | - | 0 W/m² | - |
| 1788519416 | 25.56° C | 86% | 1010.4 hPa | 0 mm | - | 0 W/m² | - |
* Rain latest hour (hover to see other rain measurements)
** Current wind speed in m/s (hover to see current wind gust speed)